Location: Overspoor
(51.4747°N, 5.6641°E)
Time: 22:52:03
(UTC+02:00)

ITUPSAT 1 - Visible Passes

Search period start: 27 June 2022 00:00
Search period end: 07 July 2022 00:00
Orbit: 700 x 712 km, 98.6° (Epoch: 27 June)

Date Brightness Start Highest point End Pass type
(mag) Time Alt. Az. Time Alt. Az. Time Alt. Az.
27 Jun ? 00:07:47 10° NNW 00:10:19 14° NW 00:12:51 10° W visible
27 Jun ? 23:12:41 10° N 23:16:59 34° WNW 23:21:16 10° SW visible
28 Jun ? 23:57:22 10° NNW 00:00:24 17° NW 00:03:26 10° W visible
29 Jun ? 23:02:30 10° N 23:06:59 41° WNW 23:11:27 10° SW visible
30 Jun ? 23:47:01 10° N 23:50:27 20° WNW 23:53:53 10° WSW visible
01 Jul ? 22:52:20 10° N 22:56:58 49° WNW 23:01:34 10° SW visible
02 Jul ? 23:36:44 10° N 23:40:30 24° WNW 23:44:15 10° WSW visible
03 Jul ? 22:42:12 10° N 22:46:56 60° WNW 22:51:39 10° SSW visible
04 Jul ? 00:22:04 10° NNW 00:23:47 12° NW 00:25:30 10° WNW visible
04 Jul ? 23:26:29 10° N 23:30:32 28° WNW 23:34:34 10° WSW visible
06 Jul ? 00:11:26 10° NNW 00:13:52 14° NW 00:16:19 10° W visible
06 Jul ? 23:16:16 10° N 23:20:32 33° WNW 23:24:48 10° SW visible
